Tiempo cada hora Bartlett

Hoy, 28 Febrero, Domingo

Tiempo Temperatura Precipitaciones Viento Presión Humedad
00:00 +1°C° 0 mm 3 mps 738 mmHg 91%
01:00 +1°C° 0 mm 3 mps 737 mmHg 92%
02:00 +1°C° 0 mm 3 mps 736 mmHg 93%
03:00 +1°C° 0 mm 3 mps 735 mmHg 94%
04:00 +1°C° 0 mm 3 mps 735 mmHg 95%
05:00 +1°C° 0 mm 3 mps 734 mmHg 97%
06:00 +1°C° 0 mm 3 mps 734 mmHg 98%
07:00 +2°C° 0 mm 3 mps 733 mmHg 98%
08:00 +3°C° 0 mm 3 mps 733 mmHg 99%
09:00 +3°C° 0 mm 3 mps 733 mmHg 99%
10:00 +4°C° 0 mm 4 mps 733 mmHg 99%
11:00 +5°C° 0 mm 4 mps 732 mmHg 98%
12:00 +6°C° 0 mm 5 mps 732 mmHg 98%
13:00 +5°C° 0 mm 5 mps 732 mmHg 97%
14:00 +4°C° 0 mm 6 mps 732 mmHg 96%
15:00 +4°C° 0 mm 7 mps 732 mmHg 95%
16:00 +3°C° 0 mm 7 mps 733 mmHg 91%
17:00 0°C° 0 mm 7 mps 734 mmHg 87%
18:00 -1°C° 0 mm 7 mps 735 mmHg 84%
19:00 -1°C° 0 mm 6 mps 736 mmHg 84%
20:00 -2°C° 0 mm 6 mps 737 mmHg 84%
21:00 -3°C° 0 mm 6 mps 738 mmHg 84%
22:00 -3°C° 0 mm 6 mps 738 mmHg 82%
23:00 -4°C° 0 mm 6 mps 739 mmHg 81%

Mañana, 1 Marzo, Lunes

Tiempo Temperatura Precipitaciones Viento Presión Humedad
00:00 -5°C° 0 mm 5 mps 739 mmHg 79%
01:00 -6°C° 0 mm 5 mps 740 mmHg 77%
02:00 -6°C° 0 mm 5 mps 740 mmHg 75%
03:00 -7°C° 0 mm 5 mps 741 mmHg 72%
04:00 -7°C° 0 mm 4 mps 742 mmHg 72%
05:00 -7°C° 0 mm 4 mps 742 mmHg 71%
06:00 -7°C° 0 mm 3 mps 743 mmHg 70%
07:00 -7°C° 0 mm 4 mps 744 mmHg 67%
08:00 -7°C° 0 mm 4 mps 744 mmHg 63%
09:00 -5°C° 0 mm 4 mps 745 mmHg 60%
10:00 -4°C° 0 mm 4 mps 746 mmHg 58%
11:00 -3°C° 0 mm 4 mps 746 mmHg 55%
12:00 -2°C° 0 mm 4 mps 747 mmHg 53%
13:00 -2°C° 0 mm 4 mps 747 mmHg 55%
14:00 -2°C° 0 mm 4 mps 747 mmHg 57%
15:00 -2°C° 0 mm 4 mps 747 mmHg 59%
16:00 -2°C° 0 mm 3 mps 747 mmHg 62%
17:00 -2°C° 0 mm 2 mps 747 mmHg 65%
18:00 -3°C° 0 mm 2 mps 748 mmHg 68%
19:00 -4°C° 0 mm 2 mps 748 mmHg 67%
20:00 -2°C° 0 mm 1 mps 748 mmHg 66%
21:00 -2°C° 0 mm 1 mps 748 mmHg 65%
22:00 -2°C° 0 mm 1 mps 748 mmHg 63%
23:00 -2°C° 0 mm 1 mps 748 mmHg 61%

Pasado mañana, 2 Marzo, Martes

Tiempo Temperatura Precipitaciones Viento Presión Humedad
00:00 -2°C° 0 mm 1 mps 748 mmHg 59%
01:00 -2°C° 0 mm 1 mps 748 mmHg 61%
02:00 -2°C° 0 mm 1 mps 747 mmHg 62%
03:00 -4°C° 0 mm 2 mps 747 mmHg 64%
04:00 -4°C° 0 mm 2 mps 746 mmHg 68%
05:00 -5°C° 0 mm 3 mps 746 mmHg 72%
06:00 -5°C° 0 mm 4 mps 745 mmHg 76%
07:00 -4°C° 0 mm 4 mps 745 mmHg 72%
08:00 -4°C° 0 mm 5 mps 744 mmHg 68%
09:00 -2°C° 0 mm 5 mps 744 mmHg 65%
10:00 -1°C° 0 mm 6 mps 743 mmHg 61%
11:00 +1°C° 0 mm 6 mps 742 mmHg 58%
12:00 +3°C° 0 mm 6 mps 742 mmHg 55%
13:00 +4°C° 0 mm 7 mps 741 mmHg 55%
14:00 +5°C° 0 mm 7 mps 740 mmHg 54%
15:00 +6°C° 0 mm 7 mps 739 mmHg 54%
16:00 +5°C° 0 mm 7 mps 738 mmHg 60%
17:00 +4°C° 0 mm 6 mps 738 mmHg 65%
18:00 +3°C° 0 mm 5 mps 737 mmHg 71%
19:00 +2°C° 0 mm 5 mps 737 mmHg 72%
20:00 +2°C° 0 mm 5 mps 737 mmHg 73%
21:00 +2°C° 0 mm 6 mps 737 mmHg 74%
22:00 +1°C° 0 mm 5 mps 737 mmHg 76%
23:00 +1°C° 0 mm 5 mps 737 mmHg 79%

3 Marzo, Miércoles

Tiempo Temperatura Precipitaciones Viento Presión Humedad
00:00 0°C° 0 mm 4 mps 737 mmHg 81%
01:00 0°C° 0 mm 4 mps 737 mmHg 84%
02:00 0°C° 0 mm 3 mps 737 mmHg 87%
03:00 -1°C° 0 mm 3 mps 737 mmHg 89%
04:00 -1°C° 0 mm 3 mps 738 mmHg 91%
05:00 -1°C° 0 mm 3 mps 738 mmHg 92%
06:00 -2°C° 0 mm 3 mps 739 mmHg 93%
07:00 -1°C° 0 mm 3 mps 739 mmHg 88%
08:00 0°C° 0 mm 3 mps 740 mmHg 84%
09:00 +1°C° 0 mm 3 mps 740 mmHg 79%
10:00 +2°C° 0 mm 3 mps 741 mmHg 74%
11:00 +4°C° 0 mm 3 mps 741 mmHg 68%
12:00 +6°C° 0 mm 2 mps 742 mmHg 63%
13:00 +5°C° 0 mm 3 mps 742 mmHg 63%
14:00 +5°C° 0 mm 3 mps 742 mmHg 63%
15:00 +5°C° 0 mm 3 mps 742 mmHg 64%
16:00 +4°C° 0 mm 3 mps 742 mmHg 68%
17:00 +3°C° 0 mm 2 mps 742 mmHg 73%
18:00 +2°C° 0 mm 2 mps 743 mmHg 77%
19:00 +1°C° 0 mm 2 mps 743 mmHg 79%
20:00 +1°C° 0 mm 2 mps 743 mmHg 81%
21:00 +1°C° 0 mm 1 mps 744 mmHg 83%
22:00 +1°C° 0 mm 1 mps 744 mmHg 84%
23:00 0°C° 0 mm 1 mps 744 mmHg 85%

4 Marzo, Jueves

Tiempo Temperatura Precipitaciones Viento Presión Humedad
00:00 0°C° 0 mm 1 mps 745 mmHg 86%
01:00 0°C° 0 mm 1 mps 745 mmHg 85%
02:00 0°C° 0 mm 1 mps 745 mmHg 85%
03:00 0°C° 0 mm 1 mps 745 mmHg 85%
04:00 0°C° 0 mm 1 mps 746 mmHg 85%
05:00 -2°C° 0 mm 2 mps 746 mmHg 85%
06:00 -3°C° 0 mm 2 mps 747 mmHg 85%
07:00 -2°C° 0 mm 2 mps 747 mmHg 80%
08:00 -1°C° 0 mm 2 mps 747 mmHg 75%
09:00 -1°C° 0 mm 2 mps 748 mmHg 69%
10:00 0°C° 0 mm 3 mps 748 mmHg 64%
11:00 +1°C° 0 mm 3 mps 748 mmHg 58%
12:00 +2°C° 0 mm 3 mps 748 mmHg 52%
13:00 +2°C° 0 mm 3 mps 748 mmHg 51%
14:00 +2°C° 0 mm 3 mps 748 mmHg 50%
15:00 +3°C° 0 mm 3 mps 748 mmHg 50%
16:00 +1°C° 0 mm 3 mps 748 mmHg 55%
17:00 0°C° 0 mm 3 mps 748 mmHg 61%
18:00 -2°C° 0 mm 3 mps 748 mmHg 67%
19:00 -2°C° 0 mm 2 mps 748 mmHg 68%
20:00 -3°C° 0 mm 2 mps 748 mmHg 70%
21:00 -3°C° 0 mm 2 mps 748 mmHg 72%
22:00 -3°C° 0 mm 2 mps 748 mmHg 72%
23:00 -2°C° 0 mm 1 mps 748 mmHg 72%

5 Marzo, Viernes

Tiempo Temperatura Precipitaciones Viento Presión Humedad
00:00 -2°C° 0 mm 1 mps 748 mmHg 72%
01:00 -2°C° 0 mm 1 mps 748 mmHg 72%
02:00 -2°C° 0 mm 1 mps 748 mmHg 71%
03:00 -2°C° 0 mm 1 mps 748 mmHg 71%
04:00 -2°C° 0 mm 1 mps 748 mmHg 70%
05:00 -2°C° 0 mm 1 mps 748 mmHg 70%
06:00 -2°C° 0 mm 1 mps 748 mmHg 69%
07:00 -1°C° 0 mm 1 mps 748 mmHg 64%
08:00 0°C° 0 mm 1 mps 749 mmHg 59%
09:00 -1°C° 0 mm 2 mps 749 mmHg 54%
10:00 +2°C° 0 mm 2 mps 749 mmHg 51%
11:00 +3°C° 0 mm 2 mps 749 mmHg 47%
12:00 +5°C° 0 mm 2 mps 748 mmHg 44%
13:00 +5°C° 0 mm 3 mps 748 mmHg 44%
14:00 +5°C° 0 mm 3 mps 748 mmHg 45%
15:00 +7°C° 0 mm 3 mps 747 mmHg 46%
16:00 +5°C° 0 mm 3 mps 747 mmHg 52%
17:00 +4°C° 0 mm 2 mps 747 mmHg 58%
18:00 +3°C° 0 mm 2 mps 747 mmHg 64%
19:00 +2°C° 0 mm 2 mps 747 mmHg 67%
20:00 +2°C° 0 mm 2 mps 747 mmHg 69%
21:00 +1°C° 0 mm 2 mps 747 mmHg 72%
22:00 +1°C° 0 mm 2 mps 746 mmHg 74%
23:00 -1°C° 0 mm 2 mps 746 mmHg 76%
Mostrar más

Necesitamos Su Consentimiento

Meteoprog y nuestros Proveedores de Servicios pueden almacenar y acceder a sus datos personales como cookies, identificadores de dispositivo u otras tecnologías similares de su dispositivo y procesar dichos datos para personalizar contenido y anuncios, además de ofrecer funciones de redes sociales y analizar el tráfico.

  • Almacenar y/o acceder a información en su dispositivo

    Se puede almacenar o acceder a cookies, identificadores de dispositivo u otra información de su dispositivo para los fines anteriormente indicados.

  • Anuncios y contenido personalizados, medición de anuncios y contenido, percepciones del público, y desarrollo de productos

    Los anuncios y el contenido pueden personalizarse en base a su perfil. Se pueden añadir más datos para personalizar mejor los anuncios y contenidos. Se puede medir el rendimiento de los anuncios y contenidos. Se puede obtener la percepción sobre el público que ha visto los anuncios y contenidos. Dichos datos pueden usarse para desarrollar o mejorar la experiencia del usuario, sistemas y software.

Al hacer clic en ‘Estoy De Acuerdo’ usted permitirá el uso de las cookies, identificadores de dispositivo, balizas web u otras tecnologías similares indicadas. Su configuración puede cambiarse desde el navegador de su dispositivo.

Para ciertos fines, los intereses legítimos pueden ser considerados por encima del consentimiento. Puede leer más sobre ello en nuestra Política de Privacidad y Cookies.